PRC TEST SPACECRAFT 4

导读 | 豆包AI

PRC TEST SPACECRAFT 4是中国于2026年2月7日成功发射的可重复使用试验航天器,这是我国第四次开展该类型航天器试验。该航天器采用长征二号F运载火箭发射,为垂直发射、水平着陆模式,主要用于验证可重复使用、长期在轨等关键技术,可拓展空间对抗、在轨服务等多元应用,将推动我国天地往返运输技术发展,助力和平利用太空。

Basic Information
目录编号:
67689
目录名称:
PRC TEST SPACECRAFT 4
国际标识:
2026-024A
轨道中心:
EARTH
卫星名称:
PRC TEST SPACECRAFT 4
卫星全名:
PRC TEST SPACECRAFT 4
卫星状态:
在轨 (已飞行83 天)
发射日期:
2026-02-07 UTC
国别 :
中国 (CN)
星等 :
--
Orbit Information
数据来源 国际轨道数据 AOE轨道数据
星历时间 2026-05-01T06:40:04+0800
11小时前
查看轨道信息
2026-05-01T05:00:00+0800
13小时前
查看轨道信息
半长轴 6970.241km 6970.24km
偏心率 0.0005937 0.0005921
轨道倾角 49.985° 49.983°
近地点辐角 207.533° 206.280°
升交点赤经 137.457° 137.782°
平近点角 152.530° 140.310°
近地点 587.965km 587.975km
远地点 596.243km 596.231km
周期 96.523分钟 96.523分钟
每日圈数 14.918705 14.918708
Detailed Information
使用方式:
暂无
2D Orbit Map
3D Orbit Map
Orbit Altitude Analysis Chart
Orbit Inclination Analysis Chart
Orbit Comprehensive Analysis Chart
View Comprehensive Chart